Location: Morlupo
(42.1333°N, 12.5000°E)
Time: 15:55:29
(UTC+00:00)

CZ-2C R/B - Pass Details

Date: 18 September 2020
Orbit: 785 x 870 km, 98.2° (Epoch: 25 October)

Event Time Altitude Azimuth Distance (km) Brightness Sun altitude
Rises 19:17:44 0° 9° (N) 3,414 6.1 -23.1°
Reaches altitude 10° 19:20:07 10° 6° (N) 2,486 5.4 -23.5°
Maximum altitude 19:25:33 61° 288° (WNW) 975 3.2 -24.4°
Drops below altitude 10° 19:31:03 10° 209° (SSW) 2,504 5.2 -25.3°
Sets 19:33:27 0° 206° (SSW) 3,441 5.9 -25.7°
